Location: Demmingen
(48.6757°N, 10.4375°E)
Time: 04:59:09
(UTC+00:00)

CZ-2C R/B - Pass Details

Date: 12 August 2024
Orbit: 782 x 869 km, 98.3° (Epoch: 08 September)

Event Time Altitude Azimuth Distance (km) Brightness Sun altitude
Exits shadow 23:51:54 16° 107° (ESE) 2,087 4.6 -26.4°
Maximum altitude 23:55:07 27° 61° (ENE) 1,578 4.4 -26.4°
Drops below altitude 10° 23:59:33 10° 6° (N) 2,445 6.1 -26.2°
Sets 00:02:12 0° 355° (N) 3,368 7.0 -26.2°
